ESGJESMQ

Guest
Details From ESGJ - Jonkoping
To ESMQ - Kalmar
Flight Number -
Tags generated
Created
Modified
Stats Distance 96 nm / 179 km
Max Altitude 0 ft / 0 m
Waypoints 3
Social Downloads 0
Likes 0
Share VATSIM

Download

Looking for another format? Having issues loading an existing format? Contact us
Advertisement - Login to hide

Notes

Basic altitude profile: - Ascent Rate: 2500ft/min - Ascent Speed: 250kts - Cruise Altitude: 35000ft - Cruise Speed: 420kts - Descent Rate: 1500ft/min - Descent Speed: 250kts Options: - Use NATs: yes - Use PACOTS: yes - Use low airways: yes - Use high airways: no

Route

ESGJ KAL ESMQ

ID Type Via Altitude Latitude Longitude Leg Dist Tot Dist Heading (true) Name
O ESGJ APT - 0 ft / 0 m 57.75505˚ 14.07110˚ - 0 nm - Jonkoping
KAL VOR - 0 ft / 0 m 56.68539˚ 16.28419˚ 96 nm 96 nm 131° / 133° KALMAR VOR-DME
O ESMQ APT - 0 ft / 0 m 56.68565˚ 16.28306˚ 0 nm 96 nm 292° / 292° Kalmar

Altitude Profile

Advertisement - Login to hide

ESGJ

Details ICAO ESGJ (JKG)
Name Jonkoping
Region Sweden
Timezone Europe/Stockholm (UTC+2.0)
Stats Elevation 741 ft / 226 m (AMSL)
Location 57.755046° 14.071101°
Runways 2
Magnetic Variation 4.454° E

METAR

ESGJ 230120Z AUTO 00000KT 9999 NCD 05/04 Q1020

Decode

TAF

Not found

Departure Runways

ID Width Length Bearing (true) Bearing (mag) Surface Threshold Offset Overrun Length
01 148 ft / 45 m 7,218 ft / 2,200 m 18.04° 13.59° Asphalt 0 ft / 0 m 212 ft / 65 m
11 82 ft / 25 m 1,960 ft / 598 m 114.43° 109.98° Dirt 0 ft / 0 m 0 ft / 0 m
19 148 ft / 45 m 7,218 ft / 2,200 m 198.05° 193.60° Asphalt 0 ft / 0 m 117 ft / 36 m
29 82 ft / 25 m 1,960 ft / 598 m 294.44° 289.99° Dirt 0 ft / 0 m 0 ft / 0 m

ESMQ

Details ICAO ESMQ (KLR)
Name Kalmar
Region Sweden
Timezone Europe/Stockholm (UTC+2.0)
Stats Elevation 17 ft / 5 m (AMSL)
Location 56.685646° 16.283058°
Runways 2
Magnetic Variation 5.123° E

METAR

ESMQ 230120Z AUTO 16003KT 9999 NCD 06/06 Q1020

Decode

TAF

Not found

Destination Runways

ID Width Length Bearing (true) Bearing (mag) Surface Threshold Offset Overrun Length
05 131 ft / 40 m 2,174 ft / 663 m 48.03° 42.91° Asphalt 0 ft / 0 m 640 ft / 195 m
16 148 ft / 45 m 6,715 ft / 2,047 m 152.22° 147.10° Asphalt 0 ft / 0 m 0 ft / 0 m
23 131 ft / 40 m 2,174 ft / 663 m 228.03° 222.91° Asphalt 0 ft / 0 m 0 ft / 0 m
34 148 ft / 45 m 6,715 ft / 2,047 m 332.23° 327.11° Asphalt 0 ft / 0 m 873 ft / 266 m

Approach Navaids

Runway Type Ident Frequency Range Bearing (true) Bearing (mag) Slope Elevation
16 Localiser MQ 108.70 MHz 18 nm / 33 km 152.34° 147.22° - 17 ft / 5 m (AMSL)
16 Glidescope MQ 108.70 MHz 10 nm / 19 km 152.23° 147.10° 3.00° 17 ft / 5 m (AMSL)

Popular Alternatives